Time,TemperatureF,DewpointF,PressureIn,WindDirection,WindDirectionDegrees,WindSpeedMPH,WindSpeedGustMPH,Humidity,HourlyPrecipIn,Conditions,Clouds,dailyrainin,SolarRadiationWatts/m^2,SoftwareType,DateUTC
2013-10-23 00:29:00,54.9,53.5,29.03,WSW,248,6.0,9.0,95,0.00,,,0.00,0,Wunderground v.1.15,2013-10-22 23:29:00,
2013-10-23 00:59:00,54.7,53.3,29.03,SW,217,9.0,9.0,95,0.00,,,0.01,0,Wunderground v.1.15,2013-10-22 23:59:00,
2013-10-23 01:29:00,54.8,53.1,29.03,SW,220,9.0,12.0,94,0.00,,,0.01,0,Wunderground v.1.15,2013-10-23 00:29:00,
2013-10-23 01:59:00,54.0,52.3,29.04,WSW,244,10.0,12.0,94,0.00,,,0.01,0,Wunderground v.1.15,2013-10-23 00:59:00,
2013-10-23 02:29:00,53.5,51.8,29.04,WSW,237,10.0,10.0,94,0.00,,,0.01,0,Wunderground v.1.15,2013-10-23 01:29:00,
2013-10-23 02:59:00,52.6,51.2,29.04,WSW,253,8.0,8.0,95,0.00,,,0.01,0,Wunderground v.1.15,2013-10-23 01:59:00,
2013-10-23 03:29:00,52.5,51.1,29.04,West,270,8.0,8.0,95,0.00,,,0.01,0,Wunderground v.1.15,2013-10-23 02:29:00,
2013-10-23 03:59:00,52.4,51.0,29.05,WNW,282,11.0,11.0,95,0.00,,,0.01,0,Wunderground v.1.15,2013-10-23 02:59:00,
2013-10-23 04:29:00,52.4,51.3,29.06,NW,305,10.0,11.0,96,0.00,,,0.01,0,Wunderground v.1.15,2013-10-23 03:29:00,
2013-10-23 04:59:00,52.0,50.6,29.08,NW,315,14.0,15.0,95,0.00,,,0.01,0,Wunderground v.1.15,2013-10-23 03:59:00,
2013-10-23 05:29:00,51.4,49.7,29.10,NW,308,12.0,12.0,94,0.00,,,0.01,0,Wunderground v.1.15,2013-10-23 04:29:00,
2013-10-23 05:59:00,50.9,49.2,29.13,NW,316,13.0,14.0,94,0.00,,,0.01,0,Wunderground v.1.15,2013-10-23 04:59:00,
2013-10-23 06:29:00,50.6,48.4,29.15,WNW,290,15.0,19.0,92,0.00,,,0.01,0,Wunderground v.1.15,2013-10-23 05:29:00,
2013-10-23 06:59:00,49.6,47.1,29.17,NW,319,13.0,15.0,91,0.00,,,0.01,0,Wunderground v.1.15,2013-10-23 05:59:00,
2013-10-23 07:29:00,48.3,45.8,29.19,NW,310,12.0,14.0,91,0.00,,,0.01,0,Wunderground v.1.15,2013-10-23 06:29:00,
2013-10-23 07:59:00,47.0,44.8,29.22,West,279,11.0,13.0,92,0.00,,,0.01,0,Wunderground v.1.15,2013-10-23 06:59:00,
2013-10-23 08:29:00,46.6,44.7,29.25,West,277,13.0,14.0,93,0.00,,,0.01,11,Wunderground v.1.15,2013-10-23 07:29:00,
2013-10-23 08:59:00,46.7,44.5,29.27,WNW,288,12.0,12.0,92,0.00,,,0.01,54,Wunderground v.1.15,2013-10-23 07:59:00,
2013-10-23 09:29:00,47.9,45.1,29.29,WNW,302,16.0,16.0,90,0.00,,,0.01,104,Wunderground v.1.15,2013-10-23 08:29:00,
2013-10-23 09:59:00,48.3,44.9,29.32,WNW,284,17.0,18.0,88,0.00,,,0.01,76,Wunderground v.1.15,2013-10-23 08:59:00,
2013-10-23 10:29:00,48.2,44.5,29.34,NW,324,17.0,17.0,87,0.00,,,0.01,60,Wunderground v.1.15,2013-10-23 09:29:00,
2013-10-23 10:59:00,48.8,44.8,29.36,West,277,16.0,19.0,86,0.00,,,0.01,37,Wunderground v.1.15,2013-10-23 09:59:00,
2013-10-23 11:29:00,49.8,44.8,29.38,WNW,294,17.0,17.0,83,0.00,,,0.01,44,Wunderground v.1.15,2013-10-23 10:29:00,
2013-10-23 11:59:00,50.4,43.5,29.40,West,279,15.0,17.0,77,0.00,,,0.01,40,Wunderground v.1.15,2013-10-23 10:59:00,
2013-10-23 12:29:00,51.6,43.6,29.42,NW,304,12.0,16.0,74,0.00,,,0.01,396,Wunderground v.1.15,2013-10-23 11:29:00,
2013-10-23 12:59:00,51.8,41.2,29.43,WNW,291,16.0,16.0,67,0.00,,,0.01,413,Wunderground v.1.15,2013-10-23 11:59:00,
2013-10-23 13:29:00,51.5,42.0,29.45,WNW,296,17.0,17.0,70,0.00,,,0.01,88,Wunderground v.1.15,2013-10-23 12:29:00,
2013-10-23 13:59:00,52.0,41.4,29.47,NW,315,18.0,18.0,67,0.00,,,0.01,464,Wunderground v.1.15,2013-10-23 12:59:00,
2013-10-23 14:29:00,51.5,41.7,29.48,NW,313,15.0,15.0,69,0.00,,,0.01,469,Wunderground v.1.15,2013-10-23 13:29:00,
2013-10-23 14:59:00,52.6,42.3,29.50,WNW,302,15.0,17.0,68,0.00,,,0.01,179,Wunderground v.1.15,2013-10-23 13:59:00,
2013-10-23 15:29:00,53.5,42.8,29.51,NW,323,14.0,15.0,67,0.00,,,0.01,415,Wunderground v.1.15,2013-10-23 14:29:00,
2013-10-23 15:59:00,49.4,42.8,29.53,WNW,286,14.0,14.0,78,0.00,,,0.01,62,Wunderground v.1.15,2013-10-23 14:59:00,
2013-10-23 16:29:00,49.1,41.9,29.54,West,281,14.0,14.0,76,0.00,,,0.01,65,Wunderground v.1.15,2013-10-23 15:29:00,
2013-10-23 16:59:00,50.1,42.1,29.56,West,268,12.0,14.0,74,0.00,,,0.01,102,Wunderground v.1.15,2013-10-23 15:59:00,
2013-10-23 17:29:00,49.1,42.2,29.58,West,268,10.0,13.0,77,0.00,,,0.01,23,Wunderground v.1.15,2013-10-23 16:29:00,
2013-10-23 17:59:00,48.0,41.8,29.59,West,266,9.0,9.0,79,0.00,,,0.01,9,Wunderground v.1.15,2013-10-23 16:59:00,
2013-10-23 18:29:00,47.0,41.1,29.61,West,267,8.0,8.0,80,0.00,,,0.01,0,Wunderground v.1.15,2013-10-23 17:29:00,
2013-10-23 18:59:00,45.9,41.0,29.63,WSW,245,7.0,9.0,83,0.00,,,0.01,0,Wunderground v.1.15,2013-10-23 17:59:00,
2013-10-23 19:29:00,45.7,40.8,29.64,SW,226,8.0,8.0,83,0.00,,,0.01,0,Wunderground v.1.15,2013-10-23 18:29:00,
2013-10-23 19:59:00,45.3,40.7,29.66,SW,223,8.0,8.0,84,0.00,,,0.01,0,Wunderground v.1.15,2013-10-23 18:59:00,
2013-10-23 20:29:00,44.7,40.8,29.67,SW,232,8.0,8.0,86,0.00,,,0.01,0,Wunderground v.1.15,2013-10-23 19:29:00,
2013-10-23 20:59:00,44.2,41.2,29.68,SW,225,7.0,7.0,89,0.00,,,0.01,0,Wunderground v.1.15,2013-10-23 19:59:00,
2013-10-23 21:29:00,44.1,41.1,29.69,SW,217,8.0,8.0,89,0.00,,,0.01,0,Wunderground v.1.15,2013-10-23 20:29:00,
2013-10-23 21:59:00,43.8,40.8,29.70,WSW,237,9.0,10.0,89,0.00,,,0.01,0,Wunderground v.1.15,2013-10-23 20:59:00,
2013-10-23 22:29:00,43.0,40.0,29.72,SW,225,8.0,8.0,89,0.00,,,0.01,0,Wunderground v.1.15,2013-10-23 21:29:00,
2013-10-23 22:59:00,42.7,40.0,29.73,SW,220,8.0,11.0,90,0.00,,,0.01,0,Wunderground v.1.15,2013-10-23 21:59:00,
2013-10-23 23:29:00,42.4,40.0,29.73,SSW,211,8.0,8.0,91,0.00,,,0.01,0,Wunderground v.1.15,2013-10-23 22:29:00,
2013-10-23 23:59:00,42.4,40.0,29.74,SSW,210,8.0,8.0,91,0.00,,,0.01,0,Wunderground v.1.15,2013-10-23 22:59:00,